Time,TemperatureF,DewpointF,PressureIn,WindDirection,WindDirectionDegrees,WindSpeedMPH,WindSpeedGustMPH,Humidity,HourlyPrecipIn,Conditions,Clouds,dailyrainin,SoftwareType,DateUTC
2013-03-29 00:00:00,45.2,24.9,30.24,WSW,248,0.0,0.0,45,0.00,,,0.00,WUHU216HW,2013-03-29 04:00:00,
2013-03-29 00:05:00,45.0,24.3,30.24,WNW,293,0.0,0.0,44,0.00,,,0.00,WUHU216HW,2013-03-29 04:05:00,
2013-03-29 00:10:00,44.5,24.3,30.24,WNW,293,0.0,0.0,45,0.00,,,0.00,WUHU216HW,2013-03-29 04:10:00,
2013-03-29 00:15:00,44.3,24.1,30.24,WNW,293,0.0,0.2,45,0.00,,,0.00,WUHU216HW,2013-03-29 04:15:00,
2013-03-29 00:20:00,44.3,24.7,30.24,ENE,68,0.0,0.2,46,0.00,,,0.00,WUHU216HW,2013-03-29 04:20:00,
2013-03-29 00:25:00,44.1,24.6,30.24,ENE,68,0.0,0.0,46,0.00,,,0.00,WUHU216HW,2013-03-29 04:25:00,
2013-03-29 00:30:00,43.9,24.9,30.25,East,90,0.2,0.7,47,0.00,,,0.00,WUHU216HW,2013-03-29 04:30:00,
2013-03-29 00:35:00,43.6,24.6,30.24,East,90,0.0,0.7,47,0.00,,,0.00,WUHU216HW,2013-03-29 04:35:00,
2013-03-29 00:40:00,43.2,24.9,30.24,West,270,0.4,0.4,48,0.00,,,0.00,WUHU216HW,2013-03-29 04:40:00,
2013-03-29 00:45:00,43.2,24.9,30.25,West,270,0.0,0.4,48,0.00,,,0.00,WUHU216HW,2013-03-29 04:45:00,
2013-03-29 00:50:00,43.2,24.9,30.25,ENE,68,0.0,0.4,48,0.00,,,0.00,WUHU216HW,2013-03-29 04:50:00,
2013-03-29 00:55:00,43.0,24.7,30.25,NW,315,0.2,0.4,48,0.00,,,0.00,WUHU216HW,2013-03-29 04:55:00,
2013-03-29 01:00:00,42.7,24.8,30.25,NW,315,0.0,0.4,49,0.00,,,0.00,WUHU216HW,2013-03-29 05:00:00,
2013-03-29 01:05:00,42.3,24.5,30.25,NNE,23,0.0,0.2,49,0.00,,,0.00,WUHU216HW,2013-03-29 05:05:00,
2013-03-29 01:10:00,42.1,24.3,30.25,NNE,23,0.0,0.0,49,0.00,,,0.00,WUHU216HW,2013-03-29 05:10:00,
2013-03-29 01:15:00,42.1,24.8,30.25,East,90,0.4,0.4,50,0.00,,,0.00,WUHU216HW,2013-03-29 05:15:00,
2013-03-29 01:20:00,41.8,24.5,30.25,East,90,0.0,0.4,50,0.00,,,0.00,WUHU216HW,2013-03-29 05:20:00,
2013-03-29 01:25:00,41.4,24.6,30.25,East,90,0.0,0.4,51,0.00,,,0.00,WUHU216HW,2013-03-29 05:25:00,
2013-03-29 01:30:00,41.2,24.4,30.25,North,0,0.0,0.0,51,0.00,,,0.00,WUHU216HW,2013-03-29 05:30:00,
2013-03-29 01:35:00,40.9,24.0,30.25,NNW,338,0.0,0.4,51,0.00,,,0.00,WUHU216HW,2013-03-29 05:35:00,
2013-03-29 01:40:00,40.1,23.9,30.25,NNW,338,0.0,0.4,52,0.00,,,0.00,WUHU216HW,2013-03-29 05:40:00,
2013-03-29 01:45:00,40.0,23.7,30.25,NW,315,0.0,0.4,52,0.00,,,0.00,WUHU216HW,2013-03-29 05:45:00,
2013-03-29 01:50:00,39.8,24.0,30.25,East,90,0.0,0.4,53,0.00,,,0.00,WUHU216HW,2013-03-29 05:50:00,
2013-03-29 01:55:00,39.8,24.4,30.25,ESE,113,0.2,0.2,54,0.00,,,0.00,WUHU216HW,2013-03-29 05:55:00,
2013-03-29 02:00:00,39.8,24.4,30.25,ESE,113,0.0,0.4,54,0.00,,,0.00,WUHU216HW,2013-03-29 06:00:00,
2013-03-29 02:05:00,39.8,24.4,30.25,WSW,248,0.2,0.4,54,0.00,,,0.00,WUHU216HW,2013-03-29 06:05:00,
2013-03-29 02:10:00,40.0,25.0,30.25,West,270,0.4,1.1,55,0.00,,,0.00,WUHU216HW,2013-03-29 06:10:00,
2013-03-29 02:15:00,40.0,24.6,30.24,West,270,0.0,1.1,54,0.00,,,0.00,WUHU216HW,2013-03-29 06:15:00,
2013-03-29 02:20:00,39.8,24.4,30.24,North,0,0.2,0.7,54,0.00,,,0.00,WUHU216HW,2013-03-29 06:20:00,
2013-03-29 02:25:00,39.2,23.9,30.24,North,0,0.0,0.4,54,0.00,,,0.00,WUHU216HW,2013-03-29 06:25:00,
2013-03-29 02:30:00,38.9,23.9,30.24,WNW,293,0.7,0.7,55,0.00,,,0.00,WUHU216HW,2013-03-29 06:30:00,
2013-03-29 02:35:00,38.9,24.4,30.24,WNW,293,0.2,0.7,56,0.00,,,0.00,WUHU216HW,2013-03-29 06:35:00,
2013-03-29 02:40:00,38.9,24.4,30.24,SSE,158,0.0,0.7,56,0.00,,,0.00,WUHU216HW,2013-03-29 06:40:00,
2013-03-29 02:45:00,38.9,25.3,30.24,ESE,113,0.7,1.1,58,0.00,,,0.00,WUHU216HW,2013-03-29 06:45:00,
2013-03-29 02:50:00,38.5,24.9,30.24,South,180,0.0,1.1,58,0.00,,,0.00,WUHU216HW,2013-03-29 06:50:00,
2013-03-29 02:55:00,38.2,24.7,30.24,NE,45,0.4,0.7,58,0.00,,,0.00,WUHU216HW,2013-03-29 06:55:00,
2013-03-29 03:00:00,37.4,23.9,30.24,NNW,338,0.0,0.4,58,0.00,,,0.00,WUHU216HW,2013-03-29 07:00:00,
2013-03-29 03:05:00,37.3,24.2,30.24,West,270,0.4,0.9,59,0.00,,,0.00,WUHU216HW,2013-03-29 07:05:00,
2013-03-29 03:10:00,37.4,24.8,30.24,West,270,0.0,0.9,60,0.00,,,0.00,WUHU216HW,2013-03-29 07:10:00,
2013-03-29 03:15:00,37.6,24.6,30.24,NE,45,0.2,0.4,59,0.00,,,0.00,WUHU216HW,2013-03-29 07:15:00,
2013-03-29 03:20:00,37.4,24.8,30.24,ENE,68,0.4,0.7,60,0.00,,,0.00,WUHU216HW,2013-03-29 07:20:00,
2013-03-29 03:25:00,37.3,24.7,30.24,ENE,68,0.0,0.7,60,0.00,,,0.00,WUHU216HW,2013-03-29 07:25:00,
2013-03-29 03:30:00,37.3,24.7,30.24,ENE,68,0.0,0.4,60,0.00,,,0.00,WUHU216HW,2013-03-29 07:30:00,
2013-03-29 03:35:00,37.1,24.5,30.24,WSW,248,0.0,0.2,60,0.00,,,0.00,WUHU216HW,2013-03-29 07:35:00,
2013-03-29 03:40:00,37.1,24.5,30.24,WNW,293,0.4,0.7,60,0.00,,,0.00,WUHU216HW,2013-03-29 07:40:00,
2013-03-29 03:45:00,36.9,24.8,30.24,NNW,338,0.4,0.7,61,0.00,,,0.00,WUHU216HW,2013-03-29 07:45:00,
2013-03-29 03:50:00,36.4,24.2,30.23,NNW,338,0.0,1.1,61,0.00,,,0.00,WUHU216HW,2013-03-29 07:50:00,
2013-03-29 03:55:00,36.0,24.0,30.24,NW,315,0.0,1.1,61,0.00,,,0.00,WUHU216HW,2013-03-29 07:55:00,
2013-03-29 04:00:00,35.8,24.1,30.24,ESE,113,0.0,0.7,62,0.00,,,0.00,WUHU216HW,2013-03-29 08:00:00,
2013-03-29 04:05:00,35.8,24.1,30.24,ESE,113,0.0,0.4,62,0.00,,,0.00,WUHU216HW,2013-03-29 08:05:00,
2013-03-29 04:10:00,35.8,24.1,30.24,ENE,68,0.4,1.3,62,0.00,,,0.00,WUHU216HW,2013-03-29 08:10:00,
2013-03-29 04:15:00,35.6,23.9,30.24,ENE,68,0.0,1.3,62,0.00,,,0.00,WUHU216HW,2013-03-29 08:15:00,
2013-03-29 04:20:00,35.6,23.9,30.24,ENE,68,0.0,0.4,62,0.00,,,0.00,WUHU216HW,2013-03-29 08:20:00,
2013-03-29 04:25:00,35.6,24.3,30.24,West,270,0.7,0.7,63,0.00,,,0.00,WUHU216HW,2013-03-29 08:25:00,
2013-03-29 04:30:00,35.8,24.5,30.24,West,270,0.4,0.9,63,0.00,,,0.00,WUHU216HW,2013-03-29 08:30:00,
2013-03-29 04:35:00,35.8,24.5,30.24,West,270,0.0,0.9,63,0.00,,,0.00,WUHU216HW,2013-03-29 08:35:00,
2013-03-29 04:40:00,36.0,25.0,30.24,South,180,0.0,0.4,64,0.00,,,0.00,WUHU216HW,2013-03-29 08:40:00,
2013-03-29 04:45:00,35.8,24.5,30.24,SSE,158,0.0,0.2,63,0.00,,,0.00,WUHU216HW,2013-03-29 08:45:00,
2013-03-29 04:50:00,35.6,24.3,30.24,SSE,158,0.0,0.2,63,0.00,,,0.00,WUHU216HW,2013-03-29 08:50:00,
2013-03-29 04:55:00,35.5,24.5,30.24,SSE,158,0.2,0.2,64,0.00,,,0.00,WUHU216HW,2013-03-29 08:55:00,
2013-03-29 05:00:00,35.3,24.7,30.24,South,180,0.0,0.2,65,0.00,,,0.00,WUHU216HW,2013-03-29 09:00:00,
2013-03-29 05:05:00,35.1,24.5,30.24,ESE,113,0.0,0.4,65,0.00,,,0.00,WUHU216HW,2013-03-29 09:05:00,
2013-03-29 05:10:00,34.9,24.3,30.24,ESE,113,0.0,0.4,65,0.00,,,0.00,WUHU216HW,2013-03-29 09:10:00,
2013-03-29 05:15:00,34.7,24.1,30.24,ESE,113,0.0,0.0,65,0.00,,,0.00,WUHU216HW,2013-03-29 09:15:00,
2013-03-29 05:20:00,34.6,23.9,30.24,NW,315,0.0,0.0,65,0.00,,,0.00,WUHU216HW,2013-03-29 09:20:00,
2013-03-29 05:25:00,34.6,24.7,30.24,ESE,113,0.4,0.4,67,0.00,,,0.00,WUHU216HW,2013-03-29 09:25:00,
2013-03-29 05:30:00,34.4,24.1,30.24,ESE,113,0.0,0.4,66,0.00,,,0.00,WUHU216HW,2013-03-29 09:30:00,
2013-03-29 05:35:00,34.6,24.3,30.24,ESE,113,0.0,0.4,66,0.00,,,0.00,WUHU216HW,2013-03-29 09:35:00,
2013-03-29 05:40:00,34.6,24.3,30.24,ENE,68,0.0,0.0,66,0.00,,,0.00,WUHU216HW,2013-03-29 09:40:00,
2013-03-29 05:45:00,34.4,24.1,30.24,West,270,0.4,0.7,66,0.00,,,0.00,WUHU216HW,2013-03-29 09:45:00,
2013-03-29 05:50:00,34.6,24.7,30.24,West,270,0.0,0.7,67,0.00,,,0.00,WUHU216HW,2013-03-29 09:50:00,
2013-03-29 05:55:00,34.6,24.7,30.24,West,270,0.0,0.4,67,0.00,,,0.00,WUHU216HW,2013-03-29 09:55:00,
2013-03-29 06:00:00,34.4,24.5,30.24,ESE,113,0.0,0.0,67,0.00,,,0.00,WUHU216HW,2013-03-29 10:00:00,
2013-03-29 06:05:00,34.4,24.5,30.24,ESE,113,0.0,0.2,67,0.00,,,0.00,WUHU216HW,2013-03-29 10:05:00,
2013-03-29 06:10:00,34.2,24.3,30.24,ESE,113,0.0,0.2,67,0.00,,,0.00,WUHU216HW,2013-03-29 10:10:00,
2013-03-29 06:15:00,34.2,24.3,30.25,ESE,113,0.0,0.0,67,0.00,,,0.00,WUHU216HW,2013-03-29 10:15:00,
2013-03-29 06:20:00,34.2,24.3,30.25,ESE,113,0.0,0.0,67,0.00,,,0.00,WUHU216HW,2013-03-29 10:20:00,
2013-03-29 06:25:00,34.0,24.1,30.25,ESE,113,0.0,0.0,67,0.00,,,0.00,WUHU216HW,2013-03-29 10:25:00,
2013-03-29 06:30:00,34.0,24.1,30.25,ESE,113,0.0,0.0,67,0.00,,,0.00,WUHU216HW,2013-03-29 10:30:00,
2013-03-29 06:35:00,34.0,24.5,30.25,ESE,113,0.0,0.2,68,0.00,,,0.00,WUHU216HW,2013-03-29 10:35:00,
2013-03-29 06:40:00,33.8,24.3,30.25,SE,135,0.2,0.4,68,0.00,,,0.00,WUHU216HW,2013-03-29 10:40:00,
2013-03-29 06:45:00,33.7,24.1,30.25,SE,135,0.0,0.4,68,0.00,,,0.00,WUHU216HW,2013-03-29 10:45:00,
2013-03-29 06:50:00,33.7,24.1,30.25,NE,45,0.7,0.7,68,0.00,,,0.00,WUHU216HW,2013-03-29 10:50:00,
2013-03-29 06:55:00,33.5,24.3,30.25,WSW,248,0.4,0.7,69,0.00,,,0.00,WUHU216HW,2013-03-29 10:55:00,
2013-03-29 07:00:00,33.5,24.3,30.26,West,270,0.4,0.7,69,0.00,,,0.00,WUHU216HW,2013-03-29 11:00:00,
2013-03-29 07:05:00,33.5,24.3,30.26,WSW,248,0.0,0.7,69,0.00,,,0.00,WUHU216HW,2013-03-29 11:05:00,
2013-03-29 07:10:00,33.5,24.3,30.26,SW,225,0.0,0.4,69,0.00,,,0.00,WUHU216HW,2013-03-29 11:10:00,
2013-03-29 07:15:00,33.3,24.6,30.26,ESE,113,0.2,0.4,70,0.00,,,0.00,WUHU216HW,2013-03-29 11:15:00,
2013-03-29 07:20:00,33.3,24.6,30.26,East,90,0.0,0.4,70,0.00,,,0.00,WUHU216HW,2013-03-29 11:20:00,
2013-03-29 07:25:00,33.1,24.0,30.26,West,270,0.4,0.9,69,0.00,,,0.00,WUHU216HW,2013-03-29 11:25:00,
2013-03-29 07:30:00,33.1,24.0,30.26,WNW,293,0.0,1.1,69,0.00,,,0.00,WUHU216HW,2013-03-29 11:30:00,
2013-03-29 07:35:00,33.1,24.0,30.27,NW,315,0.0,1.1,69,0.00,,,0.00,WUHU216HW,2013-03-29 11:35:00,
2013-03-29 07:40:00,33.1,24.4,30.27,WSW,248,0.4,0.7,70,0.00,,,0.00,WUHU216HW,2013-03-29 11:40:00,
2013-03-29 07:45:00,33.5,24.7,30.27,West,270,0.0,0.7,70,0.00,,,0.00,WUHU216HW,2013-03-29 11:45:00,
2013-03-29 07:50:00,33.5,24.7,30.27,NE,45,0.0,0.4,70,0.00,,,0.00,WUHU216HW,2013-03-29 11:50:00,
2013-03-29 07:55:00,33.5,24.7,30.27,NE,45,0.0,0.2,70,0.00,,,0.00,WUHU216HW,2013-03-29 11:55:00,
2013-03-29 08:00:00,33.8,25.0,30.27,NE,45,0.0,0.0,70,0.00,,,0.00,WUHU216HW,2013-03-29 12:00:00,
2013-03-29 08:05:00,34.2,25.4,30.28,NE,45,0.0,0.0,70,0.00,,,0.00,WUHU216HW,2013-03-29 12:05:00,
2013-03-29 08:10:00,34.4,25.9,30.28,NE,45,0.0,0.0,71,0.00,,,0.00,WUHU216HW,2013-03-29 12:10:00,
2013-03-29 08:15:00,34.7,26.3,30.28,NNW,338,0.0,0.0,71,0.00,,,0.00,WUHU216HW,2013-03-29 12:15:00,
2013-03-29 08:20:00,35.1,26.7,30.27,WNW,293,0.0,0.4,71,0.00,,,0.00,WUHU216HW,2013-03-29 12:20:00,
2013-03-29 08:25:00,35.6,26.8,30.28,WNW,293,0.0,0.4,70,0.00,,,0.00,WUHU216HW,2013-03-29 12:25:00,
2013-03-29 08:30:00,36.2,27.4,30.28,WNW,293,0.0,0.0,70,0.00,,,0.00,WUHU216HW,2013-03-29 12:30:00,
2013-03-29 08:35:00,36.7,27.2,30.28,WNW,293,0.0,0.0,68,0.00,,,0.00,WUHU216HW,2013-03-29 12:35:00,
2013-03-29 08:40:00,37.3,27.3,30.28,West,270,0.0,0.2,67,0.00,,,0.00,WUHU216HW,2013-03-29 12:40:00,
2013-03-29 08:45:00,38.0,27.6,30.28,West,270,0.4,0.7,66,0.00,,,0.00,WUHU216HW,2013-03-29 12:45:00,
2013-03-29 08:50:00,38.7,27.9,30.28,WSW,248,0.0,0.7,65,0.00,,,0.00,WUHU216HW,2013-03-29 12:50:00,
2013-03-29 08:55:00,39.6,28.4,30.28,WSW,248,0.0,0.4,64,0.00,,,0.00,WUHU216HW,2013-03-29 12:55:00,
2013-03-29 09:00:00,40.5,29.3,30.28,West,270,0.0,0.2,64,0.00,,,0.00,WUHU216HW,2013-03-29 13:00:00,
2013-03-29 09:05:00,41.2,29.5,30.28,NW,315,0.4,0.7,63,0.00,,,0.00,WUHU216HW,2013-03-29 13:05:00,
2013-03-29 09:10:00,41.9,29.9,30.28,NW,315,0.0,0.7,62,0.00,,,0.00,WUHU216HW,2013-03-29 13:10:00,
2013-03-29 09:15:00,42.5,30.0,30.28,SW,225,0.4,0.7,61,0.00,,,0.00,WUHU216HW,2013-03-29 13:15:00,
2013-03-29 09:20:00,43.0,29.6,30.28,NNW,338,0.4,0.9,59,0.00,,,0.00,WUHU216HW,2013-03-29 13:20:00,
2013-03-29 09:25:00,43.6,29.7,30.28,NNW,338,0.4,0.9,58,0.00,,,0.00,WUHU216HW,2013-03-29 13:25:00,
2013-03-29 09:30:00,44.1,29.8,30.28,West,270,0.7,1.1,57,0.00,,,0.00,WUHU216HW,2013-03-29 13:30:00,
2013-03-29 09:35:00,44.3,29.5,30.28,NW,315,1.1,1.8,56,0.00,,,0.00,WUHU216HW,2013-03-29 13:35:00,
2013-03-29 09:40:00,44.8,29.6,30.28,NW,315,2.0,2.0,55,0.00,,,0.00,WUHU216HW,2013-03-29 13:40:00,
2013-03-29 09:45:00,45.2,29.9,30.27,West,270,0.4,2.0,55,0.00,,,0.00,WUHU216HW,2013-03-29 13:45:00,
2013-03-29 09:50:00,45.5,30.2,30.27,WSW,248,2.5,2.5,55,0.00,,,0.00,WUHU216HW,2013-03-29 13:50:00,
2013-03-29 09:55:00,45.5,29.8,30.27,NNW,338,0.0,2.5,54,0.00,,,0.00,WUHU216HW,2013-03-29 13:55:00,
2013-03-29 10:00:00,45.7,29.5,30.27,West,270,1.8,3.6,53,0.00,,,0.00,WUHU216HW,2013-03-29 14:00:00,
2013-03-29 10:05:00,46.1,29.3,30.27,NW,315,2.7,3.6,52,0.00,,,0.00,WUHU216HW,2013-03-29 14:05:00,
2013-03-29 10:10:00,46.4,29.7,30.27,West,270,3.1,3.1,52,0.00,,,0.00,WUHU216HW,2013-03-29 14:10:00,
2013-03-29 10:15:00,46.4,29.3,30.27,SW,225,1.8,3.4,51,0.00,,,0.00,WUHU216HW,2013-03-29 14:15:00,
2013-03-29 10:20:00,46.6,29.0,30.27,WNW,293,0.4,3.4,50,0.00,,,0.00,WUHU216HW,2013-03-29 14:20:00,
2013-03-29 10:25:00,47.2,29.4,30.26,WSW,248,0.0,2.2,50,0.00,,,0.00,WUHU216HW,2013-03-29 14:25:00,
2013-03-29 10:30:00,47.2,29.4,30.26,North,0,1.8,2.0,50,0.00,,,0.00,WUHU216HW,2013-03-29 14:30:00,
2013-03-29 10:35:00,47.9,27.9,30.27,East,90,0.7,3.8,46,0.00,,,0.00,WUHU216HW,2013-03-29 14:35:00,
2013-03-29 10:40:00,48.6,29.7,30.26,SSW,203,0.4,3.8,48,0.00,,,0.00,WUHU216HW,2013-03-29 14:40:00,
2013-03-29 10:45:00,49.0,29.5,30.26,North,0,2.0,2.0,47,0.00,,,0.00,WUHU216HW,2013-03-29 14:45:00,
2013-03-29 10:50:00,49.3,29.4,30.26,NW,315,1.8,4.7,46,0.00,,,0.00,WUHU216HW,2013-03-29 14:50:00,
2013-03-29 10:55:00,50.0,29.4,30.26,WNW,293,2.7,4.7,45,0.00,,,0.00,WUHU216HW,2013-03-29 14:55:00,
2013-03-29 11:00:00,50.6,28.8,30.26,NNW,338,2.7,4.3,43,0.00,,,0.00,WUHU216HW,2013-03-29 15:00:00,
2013-03-29 11:05:00,50.9,29.2,30.26,WSW,248,1.6,4.7,43,0.00,,,0.00,WUHU216HW,2013-03-29 15:05:00,
2013-03-29 11:10:00,51.3,29.4,30.26,NW,315,2.2,4.7,43,0.00,,,0.00,WUHU216HW,2013-03-29 15:10:00,
2013-03-29 11:15:00,51.7,29.3,30.26,WNW,293,1.8,4.3,42,0.00,,,0.00,WUHU216HW,2013-03-29 15:15:00,
2013-03-29 11:20:00,51.8,29.3,30.26,SW,225,6.3,6.3,42,0.00,,,0.00,WUHU216HW,2013-03-29 15:20:00,
2013-03-29 11:25:00,52.2,29.7,30.26,WNW,293,1.6,6.3,42,0.00,,,0.00,WUHU216HW,2013-03-29 15:25:00,
2013-03-29 11:30:00,52.4,29.9,30.26,North,0,0.4,6.3,42,0.00,,,0.00,WUHU216HW,2013-03-29 15:30:00,
2013-03-29 11:35:00,52.6,29.4,30.25,North,0,0.7,3.8,41,0.00,,,0.00,WUHU216HW,2013-03-29 15:35:00,
2013-03-29 11:40:00,52.7,29.1,30.25,NNE,23,3.1,4.0,40,0.00,,,0.00,WUHU216HW,2013-03-29 15:40:00,
2013-03-29 11:45:00,52.9,29.3,30.25,NW,315,1.8,6.9,40,0.00,,,0.00,WUHU216HW,2013-03-29 15:45:00,
2013-03-29 11:50:00,52.9,29.8,30.25,WSW,248,4.9,6.9,41,0.00,,,0.00,WUHU216HW,2013-03-29 15:50:00,
2013-03-29 11:55:00,52.9,28.5,30.25,ENE,68,2.0,5.4,39,0.00,,,0.00,WUHU216HW,2013-03-29 15:55:00,
2013-03-29 12:00:00,53.1,28.7,30.25,NNE,23,0.4,4.9,39,0.00,,,0.00,WUHU216HW,2013-03-29 16:00:00,
2013-03-29 12:05:00,53.3,28.2,30.25,North,0,2.2,2.5,38,0.00,,,0.00,WUHU216HW,2013-03-29 16:05:00,
2013-03-29 12:10:00,53.3,28.9,30.24,NW,315,0.4,4.0,39,0.00,,,0.00,WUHU216HW,2013-03-29 16:10:00,
2013-03-29 12:15:00,52.9,27.9,30.24,West,270,3.8,6.3,38,0.00,,,0.00,WUHU216HW,2013-03-29 16:15:00,
2013-03-29 12:20:00,52.9,29.3,30.24,WSW,248,2.0,6.3,40,0.00,,,0.00,WUHU216HW,2013-03-29 16:20:00,
2013-03-29 12:25:00,53.3,29.5,30.24,SW,225,0.0,4.3,40,0.00,,,0.00,WUHU216HW,2013-03-29 16:25:00,
2013-03-29 12:30:00,53.6,28.5,30.24,North,0,1.6,4.5,38,0.00,,,0.00,WUHU216HW,2013-03-29 16:30:00,
2013-03-29 12:35:00,54.0,30.3,30.24,West,270,1.1,4.5,40,0.00,,,0.00,WUHU216HW,2013-03-29 16:35:00,
2013-03-29 12:40:00,54.2,29.0,30.23,NNE,23,1.8,2.2,38,0.00,,,0.00,WUHU216HW,2013-03-29 16:40:00,
2013-03-29 12:45:00,54.4,28.4,30.23,ENE,68,0.4,3.4,37,0.00,,,0.00,WUHU216HW,2013-03-29 16:45:00,
2013-03-29 12:50:00,54.5,29.4,30.23,WSW,248,1.1,4.0,38,0.00,,,0.00,WUHU216HW,2013-03-29 16:50:00,
2013-03-29 12:55:00,54.7,29.4,30.22,West,270,2.5,4.0,38,0.00,,,0.00,WUHU216HW,2013-03-29 16:55:00,
2013-03-29 13:00:00,55.3,30.0,30.23,West,270,0.4,6.3,38,0.00,,,0.00,WUHU216HW,2013-03-29 17:00:00,
2013-03-29 13:05:00,55.6,28.9,30.22,ENE,68,3.4,6.3,36,0.00,,,0.00,WUHU216HW,2013-03-29 17:05:00,
2013-03-29 13:10:00,55.8,29.7,30.22,SE,135,1.8,3.4,37,0.00,,,0.00,WUHU216HW,2013-03-29 17:10:00,
2013-03-29 13:15:00,56.2,30.8,30.22,ENE,68,1.3,3.8,38,0.00,,,0.00,WUHU216HW,2013-03-29 17:15:00,
2013-03-29 13:20:00,56.7,30.5,30.21,NW,315,0.4,4.5,37,0.00,,,0.00,WUHU216HW,2013-03-29 17:20:00,
2013-03-29 13:25:00,57.1,31.6,30.21,SW,225,1.1,5.4,38,0.00,,,0.00,WUHU216HW,2013-03-29 17:25:00,
2013-03-29 13:30:00,57.2,28.9,30.20,NNW,338,0.4,5.4,34,0.00,,,0.00,WUHU216HW,2013-03-29 17:30:00,
2013-03-29 13:35:00,57.2,30.3,30.20,West,270,2.5,4.9,36,0.00,,,0.00,WUHU216HW,2013-03-29 17:35:00,
2013-03-29 13:40:00,58.0,31.0,30.20,WNW,293,1.3,4.7,36,0.00,,,0.00,WUHU216HW,2013-03-29 17:40:00,
2013-03-29 13:45:00,58.7,32.3,30.20,NE,45,0.4,2.5,37,0.00,,,0.00,WUHU216HW,2013-03-29 17:45:00,
2013-03-29 13:50:00,59.4,31.5,30.20,SW,225,2.7,3.4,35,0.00,,,0.00,WUHU216HW,2013-03-29 17:50:00,
2013-03-29 13:55:00,60.1,31.4,30.20,WSW,248,4.0,4.9,34,0.00,,,0.00,WUHU216HW,2013-03-29 17:55:00,
2013-03-29 14:00:00,60.5,29.6,30.19,WSW,248,5.4,5.4,31,0.00,,,0.00,WUHU216HW,2013-03-29 18:00:00,
2013-03-29 14:05:00,60.3,30.9,30.19,WNW,293,3.4,5.4,33,0.00,,,0.00,WUHU216HW,2013-03-29 18:05:00,
2013-03-29 14:10:00,60.5,30.3,30.19,NW,315,2.5,5.4,32,0.00,,,0.00,WUHU216HW,2013-03-29 18:10:00,
2013-03-29 14:15:00,60.1,30.0,30.19,WNW,293,2.9,6.0,32,0.00,,,0.00,WUHU216HW,2013-03-29 18:15:00,
2013-03-29 14:20:00,59.9,29.9,30.18,SW,225,3.4,6.0,32,0.00,,,0.00,WUHU216HW,2013-03-29 18:20:00,
2013-03-29 14:25:00,60.1,30.7,30.18,WSW,248,4.7,5.8,33,0.00,,,0.00,WUHU216HW,2013-03-29 18:25:00,
2013-03-29 14:30:00,60.8,30.6,30.18,West,270,5.4,6.3,32,0.00,,,0.00,WUHU216HW,2013-03-29 18:30:00,
2013-03-29 14:35:00,61.0,30.1,30.18,West,270,2.2,6.7,31,0.00,,,0.00,WUHU216HW,2013-03-29 18:35:00,
2013-03-29 14:40:00,61.0,30.8,30.17,West,270,1.8,6.7,32,0.00,,,0.00,WUHU216HW,2013-03-29 18:40:00,
2013-03-29 14:45:00,60.7,29.7,30.17,SSE,158,2.5,4.3,31,0.00,,,0.00,WUHU216HW,2013-03-29 18:45:00,
2013-03-29 14:50:00,60.7,30.4,30.17,West,270,1.6,5.6,32,0.00,,,0.00,WUHU216HW,2013-03-29 18:50:00,
2013-03-29 14:55:00,60.8,30.6,30.17,NNE,23,1.3,5.6,32,0.00,,,0.00,WUHU216HW,2013-03-29 18:55:00,
2013-03-29 15:00:00,61.0,30.8,30.16,NNW,338,1.3,3.4,32,0.00,,,0.00,WUHU216HW,2013-03-29 19:00:00,
2013-03-29 15:05:00,61.0,30.1,30.16,North,0,1.8,3.4,31,0.00,,,0.00,WUHU216HW,2013-03-29 19:05:00,
2013-03-29 15:10:00,60.8,29.2,30.16,NNW,338,1.6,4.0,30,0.00,,,0.00,WUHU216HW,2013-03-29 19:10:00,
2013-03-29 15:15:00,60.1,29.4,30.16,WSW,248,3.1,4.0,31,0.00,,,0.00,WUHU216HW,2013-03-29 19:15:00,
2013-03-29 15:20:00,60.3,29.4,30.16,WSW,248,1.6,4.9,31,0.00,,,0.00,WUHU216HW,2013-03-29 19:20:00,
2013-03-29 15:25:00,60.5,29.6,30.16,North,0,1.1,4.9,31,0.00,,,0.00,WUHU216HW,2013-03-29 19:25:00,
2013-03-29 15:30:00,60.8,29.9,30.15,SW,225,6.3,6.3,31,0.00,,,0.00,WUHU216HW,2013-03-29 19:30:00,
2013-03-29 15:35:00,60.8,29.9,30.15,SW,225,4.3,6.3,31,0.00,,,0.00,WUHU216HW,2013-03-29 19:35:00,
2013-03-29 15:40:00,60.7,29.7,30.15,WSW,248,2.5,4.7,31,0.00,,,0.00,WUHU216HW,2013-03-29 19:40:00,
2013-03-29 15:45:00,60.8,29.9,30.15,SE,135,0.7,4.7,31,0.00,,,0.00,WUHU216HW,2013-03-29 19:45:00,
2013-03-29 15:50:00,61.0,30.8,30.15,SSW,203,1.8,4.7,32,0.00,,,0.00,WUHU216HW,2013-03-29 19:50:00,
2013-03-29 15:55:00,60.8,29.9,30.15,SW,225,1.6,4.7,31,0.00,,,0.00,WUHU216HW,2013-03-29 19:55:00,
2013-03-29 16:00:00,60.8,30.6,30.15,West,270,1.8,3.6,32,0.00,,,0.00,WUHU216HW,2013-03-29 20:00:00,
2013-03-29 16:05:00,60.7,29.7,30.14,South,180,1.3,3.6,31,0.00,,,0.00,WUHU216HW,2013-03-29 20:05:00,
2013-03-29 16:10:00,60.3,29.4,30.14,WNW,293,1.8,4.0,31,0.00,,,0.00,WUHU216HW,2013-03-29 20:10:00,
2013-03-29 16:15:00,60.5,29.6,30.14,NW,315,1.3,4.0,31,0.00,,,0.00,WUHU216HW,2013-03-29 20:15:00,
2013-03-29 16:20:00,60.5,29.6,30.14,SE,135,2.2,3.4,31,0.00,,,0.00,WUHU216HW,2013-03-29 20:20:00,
2013-03-29 16:25:00,60.5,29.6,30.14,NE,45,1.8,3.4,31,0.00,,,0.00,WUHU216HW,2013-03-29 20:25:00,
2013-03-29 16:30:00,60.3,29.4,30.14,WNW,293,1.1,2.9,31,0.00,,,0.00,WUHU216HW,2013-03-29 20:30:00,
2013-03-29 16:35:00,59.9,29.2,30.14,West,270,3.1,4.0,31,0.00,,,0.00,WUHU216HW,2013-03-29 20:35:00,
2013-03-29 16:40:00,59.9,29.9,30.14,SSW,203,0.2,4.0,32,0.00,,,0.00,WUHU216HW,2013-03-29 20:40:00,
2013-03-29 16:45:00,59.9,29.2,30.14,West,270,0.9,3.4,31,0.00,,,0.00,WUHU216HW,2013-03-29 20:45:00,
2013-03-29 16:50:00,59.8,29.7,30.14,NNW,338,0.7,3.4,32,0.00,,,0.00,WUHU216HW,2013-03-29 20:50:00,
2013-03-29 16:55:00,59.8,29.0,30.14,East,90,1.1,4.0,31,0.00,,,0.00,WUHU216HW,2013-03-29 20:55:00,
2013-03-29 17:00:00,59.8,29.0,30.14,SW,225,6.3,6.5,31,0.00,,,0.00,WUHU216HW,2013-03-29 21:00:00,
2013-03-29 17:05:00,59.8,29.0,30.13,WNW,293,1.8,6.5,31,0.00,,,0.00,WUHU216HW,2013-03-29 21:05:00,
2013-03-29 17:10:00,59.8,29.0,30.14,WNW,293,2.7,6.3,31,0.00,,,0.00,WUHU216HW,2013-03-29 21:10:00,
2013-03-29 17:15:00,59.6,28.9,30.13,WNW,293,2.9,3.8,31,0.00,,,0.00,WUHU216HW,2013-03-29 21:15:00,
2013-03-29 17:20:00,59.4,28.7,30.13,West,270,1.8,3.8,31,0.00,,,0.00,WUHU216HW,2013-03-29 21:20:00,
2013-03-29 17:25:00,59.6,28.9,30.13,SW,225,1.8,2.9,31,0.00,,,0.00,WUHU216HW,2013-03-29 21:25:00,
2013-03-29 17:30:00,59.6,28.9,30.13,WNW,293,0.4,2.5,31,0.00,,,0.00,WUHU216HW,2013-03-29 21:30:00,
2013-03-29 17:35:00,59.8,29.7,30.13,WNW,293,1.1,2.5,32,0.00,,,0.00,WUHU216HW,2013-03-29 21:35:00,
2013-03-29 17:40:00,59.8,29.0,30.13,WNW,293,0.4,4.0,31,0.00,,,0.00,WUHU216HW,2013-03-29 21:40:00,
2013-03-29 17:45:00,59.8,29.0,30.13,SW,225,1.3,4.0,31,0.00,,,0.00,WUHU216HW,2013-03-29 21:45:00,
2013-03-29 17:50:00,59.8,29.0,30.13,WNW,293,1.8,4.0,31,0.00,,,0.00,WUHU216HW,2013-03-29 21:50:00,
2013-03-29 17:55:00,59.8,28.3,30.13,NW,315,2.5,4.0,30,0.00,,,0.00,WUHU216HW,2013-03-29 21:55:00,
2013-03-29 18:00:00,59.6,28.2,30.13,NW,315,1.6,3.1,30,0.00,,,0.00,WUHU216HW,2013-03-29 22:00:00,
2013-03-29 18:05:00,59.4,28.0,30.13,North,0,1.6,4.0,30,0.00,,,0.00,WUHU216HW,2013-03-29 22:05:00,
2013-03-29 18:10:00,59.4,28.7,30.13,WNW,293,0.4,4.0,31,0.00,,,0.00,WUHU216HW,2013-03-29 22:10:00,
2013-03-29 18:15:00,59.2,27.9,30.13,NW,315,1.6,3.4,30,0.00,,,0.00,WUHU216HW,2013-03-29 22:15:00,
2013-03-29 18:20:00,59.0,28.5,30.13,West,270,0.7,3.4,31,0.00,,,0.00,WUHU216HW,2013-03-29 22:20:00,
2013-03-29 18:25:00,58.9,28.3,30.13,North,0,0.7,2.7,31,0.00,,,0.00,WUHU216HW,2013-03-29 22:25:00,
2013-03-29 18:30:00,58.9,27.5,30.13,West,270,1.3,3.6,30,0.00,,,0.00,WUHU216HW,2013-03-29 22:30:00,
2013-03-29 18:35:00,58.7,28.1,30.13,WSW,248,1.6,3.6,31,0.00,,,0.00,WUHU216HW,2013-03-29 22:35:00,
2013-03-29 18:40:00,58.7,28.1,30.13,West,270,2.9,2.9,31,0.00,,,0.00,WUHU216HW,2013-03-29 22:40:00,
2013-03-29 18:45:00,58.5,27.9,30.13,NW,315,0.9,4.0,31,0.00,,,0.00,WUHU216HW,2013-03-29 22:45:00,
2013-03-29 18:50:00,58.5,27.9,30.13,WNW,293,2.0,4.0,31,0.00,,,0.00,WUHU216HW,2013-03-29 22:50:00,
2013-03-29 18:55:00,58.3,27.8,30.13,WSW,248,1.3,2.9,31,0.00,,,0.00,WUHU216HW,2013-03-29 22:55:00,
2013-03-29 19:00:00,58.1,27.6,30.13,West,270,1.1,2.9,31,0.00,,,0.00,WUHU216HW,2013-03-29 23:00:00,
2013-03-29 19:05:00,58.1,28.4,30.13,WSW,248,0.2,2.5,32,0.00,,,0.00,WUHU216HW,2013-03-29 23:05:00,
2013-03-29 19:10:00,58.0,28.2,30.13,WSW,248,1.3,2.7,32,0.00,,,0.00,WUHU216HW,2013-03-29 23:10:00,
2013-03-29 19:15:00,58.0,28.2,30.13,WNW,293,0.4,2.7,32,0.00,,,0.00,WUHU216HW,2013-03-29 23:15:00,
2013-03-29 19:20:00,58.0,28.2,30.13,WSW,248,1.1,1.3,32,0.00,,,0.00,WUHU216HW,2013-03-29 23:20:00,
2013-03-29 19:25:00,57.8,28.0,30.13,West,270,0.2,1.1,32,0.00,,,0.00,WUHU216HW,2013-03-29 23:25:00,
2013-03-29 19:30:00,57.6,27.8,30.13,WSW,248,0.0,1.1,32,0.00,,,0.00,WUHU216HW,2013-03-29 23:30:00,
2013-03-29 19:35:00,57.4,28.4,30.14,WSW,248,0.0,0.4,33,0.00,,,0.00,WUHU216HW,2013-03-29 23:35:00,
2013-03-29 19:41:00,57.2,28.2,30.13,West,270,0.0,0.0,33,0.00,,,0.00,WUHU216HW,2013-03-29 23:41:00,
2013-03-29 19:46:00,56.9,27.9,30.13,NNW,338,0.0,0.0,33,0.00,,,0.00,WUHU216HW,2013-03-29 23:46:00,
2013-03-29 19:51:00,56.5,27.5,30.14,NNW,338,0.0,0.0,33,0.00,,,0.00,WUHU216HW,2013-03-29 23:51:00,
2013-03-29 19:55:00,56.3,28.1,30.14,NNW,338,0.0,0.0,34,0.00,,,0.00,WUHU216HW,2013-03-29 23:55:00,
2013-03-29 20:00:00,56.0,27.8,30.14,NNE,23,0.0,0.0,34,0.00,,,0.00,WUHU216HW,2013-03-30 00:00:00,
2013-03-29 20:05:00,55.6,27.5,30.14,NNE,23,0.0,0.0,34,0.00,,,0.00,WUHU216HW,2013-03-30 00:05:00,
2013-03-29 20:10:00,55.1,27.7,30.14,NNE,23,0.0,0.0,35,0.00,,,0.00,WUHU216HW,2013-03-30 00:10:00,
2013-03-29 20:15:00,54.9,27.6,30.14,NNE,23,0.0,0.0,35,0.00,,,0.00,WUHU216HW,2013-03-30 00:15:00,
2013-03-29 20:20:00,54.7,28.1,30.14,NNE,23,0.0,0.0,36,0.00,,,0.00,WUHU216HW,2013-03-30 00:20:00,
2013-03-29 20:25:00,54.5,28.6,30.14,NNE,23,0.0,0.0,37,0.00,,,0.00,WUHU216HW,2013-03-30 00:25:00,
2013-03-29 20:31:00,54.4,28.4,30.14,NNE,23,0.0,0.0,37,0.00,,,0.00,WUHU216HW,2013-03-30 00:31:00,
2013-03-29 20:36:00,54.0,28.8,30.14,SW,225,0.0,0.0,38,0.00,,,0.00,WUHU216HW,2013-03-30 00:36:00,
2013-03-29 20:41:00,53.8,28.7,30.15,SW,225,0.0,0.0,38,0.00,,,0.00,WUHU216HW,2013-03-30 00:41:00,
2013-03-29 20:46:00,53.6,29.2,30.15,SW,225,0.0,0.0,39,0.00,,,0.00,WUHU216HW,2013-03-30 00:46:00,
2013-03-29 20:51:00,53.5,29.1,30.15,SW,225,0.0,0.0,39,0.00,,,0.00,WUHU216HW,2013-03-30 00:51:00,
2013-03-29 20:56:00,53.3,28.9,30.15,SW,225,0.0,0.0,39,0.00,,,0.00,WUHU216HW,2013-03-30 00:56:00,
2013-03-29 21:01:00,52.9,29.3,30.15,SW,225,0.0,0.0,40,0.00,,,0.00,WUHU216HW,2013-03-30 01:01:00,
2013-03-29 21:06:00,52.6,28.9,30.15,SW,225,0.0,0.0,40,0.00,,,0.00,WUHU216HW,2013-03-30 01:06:00,
2013-03-29 21:11:00,52.4,29.4,30.15,SW,225,0.0,0.0,41,0.00,,,0.00,WUHU216HW,2013-03-30 01:11:00,
2013-03-29 21:16:00,52.0,29.0,30.15,SW,225,0.0,0.0,41,0.00,,,0.00,WUHU216HW,2013-03-30 01:16:00,
2013-03-29 21:21:00,51.8,28.8,30.15,SW,225,0.0,0.0,41,0.00,,,0.00,WUHU216HW,2013-03-30 01:21:00,
2013-03-29 21:26:00,51.5,28.5,30.15,SW,225,0.0,0.0,41,0.00,,,0.00,WUHU216HW,2013-03-30 01:26:00,
2013-03-29 21:31:00,51.1,28.7,30.15,West,270,0.2,0.2,42,0.00,,,0.00,WUHU216HW,2013-03-30 01:31:00,
2013-03-29 21:36:00,50.8,28.5,30.15,West,270,0.0,0.2,42,0.00,,,0.00,WUHU216HW,2013-03-30 01:36:00,
2013-03-29 21:41:00,50.6,28.3,30.15,West,270,0.0,0.2,42,0.00,,,0.00,WUHU216HW,2013-03-30 01:41:00,
2013-03-29 21:46:00,50.4,28.6,30.15,SW,225,0.0,0.0,43,0.00,,,0.00,WUHU216HW,2013-03-30 01:46:00,
2013-03-29 21:51:00,50.2,28.4,30.15,NNW,338,0.0,0.0,43,0.00,,,0.00,WUHU216HW,2013-03-30 01:51:00,
2013-03-29 21:56:00,49.9,28.2,30.15,NNW,338,0.0,0.0,43,0.00,,,0.00,WUHU216HW,2013-03-30 01:56:00,
2013-03-29 22:01:00,49.5,28.4,30.16,SSW,203,0.0,0.0,44,0.00,,,0.00,WUHU216HW,2013-03-30 02:01:00,
2013-03-29 22:06:00,49.3,28.2,30.16,NW,315,0.0,1.8,44,0.00,,,0.00,WUHU216HW,2013-03-30 02:06:00,
2013-03-29 22:11:00,49.0,27.9,30.16,NW,315,0.0,1.8,44,0.00,,,0.00,WUHU216HW,2013-03-30 02:11:00,
2013-03-29 22:16:00,48.8,28.3,30.16,NW,315,0.0,0.0,45,0.00,,,0.00,WUHU216HW,2013-03-30 02:16:00,
2013-03-29 22:21:00,48.6,28.1,30.16,NW,315,0.0,0.0,45,0.00,,,0.00,WUHU216HW,2013-03-30 02:21:00,
2013-03-29 22:26:00,48.4,28.5,30.16,SSW,203,0.0,0.0,46,0.00,,,0.00,WUHU216HW,2013-03-30 02:26:00,
2013-03-29 22:31:00,48.2,28.3,30.16,SW,225,0.0,0.0,46,0.00,,,0.00,WUHU216HW,2013-03-30 02:31:00,
2013-03-29 22:36:00,47.9,27.9,30.16,SSW,203,0.0,0.0,46,0.00,,,0.00,WUHU216HW,2013-03-30 02:36:00,
2013-03-29 22:41:00,47.9,28.4,30.16,SSW,203,0.0,0.0,47,0.00,,,0.00,WUHU216HW,2013-03-30 02:41:00,
2013-03-29 22:46:00,47.7,28.4,30.16,SSW,203,0.0,0.0,47,0.00,,,0.00,WUHU216HW,2013-03-30 02:46:00,
2013-03-29 22:51:00,47.5,28.7,30.16,SSW,203,0.0,0.0,48,0.00,,,0.00,WUHU216HW,2013-03-30 02:51:00,
2013-03-29 22:56:00,47.3,28.5,30.16,SSW,203,0.0,0.0,48,0.00,,,0.00,WUHU216HW,2013-03-30 02:56:00,
2013-03-29 23:01:00,47.2,28.9,30.16,SSW,203,0.0,0.0,49,0.00,,,0.00,WUHU216HW,2013-03-30 03:01:00,
2013-03-29 23:06:00,47.0,28.7,30.16,SSW,203,0.0,0.0,49,0.00,,,0.00,WUHU216HW,2013-03-30 03:06:00,
2013-03-29 23:11:00,46.8,28.6,30.16,SSW,203,0.0,0.0,49,0.00,,,0.00,WUHU216HW,2013-03-30 03:11:00,
2013-03-29 23:16:00,46.6,28.5,30.16,SSW,203,0.0,0.0,49,0.00,,,0.00,WUHU216HW,2013-03-30 03:16:00,
2013-03-29 23:21:00,46.4,28.8,30.16,SE,135,0.2,0.4,50,0.00,,,0.00,WUHU216HW,2013-03-30 03:21:00,
2013-03-29 23:26:00,46.3,29.1,30.16,SE,135,0.0,0.4,51,0.00,,,0.00,WUHU216HW,2013-03-30 03:26:00,
2013-03-29 23:31:00,46.1,28.9,30.16,SE,135,0.0,0.4,51,0.00,,,0.00,WUHU216HW,2013-03-30 03:31:00,
2013-03-29 23:36:00,45.9,28.8,30.16,West,270,0.4,0.4,51,0.00,,,0.00,WUHU216HW,2013-03-30 03:36:00,
2013-03-29 23:41:00,45.7,29.1,30.15,West,270,0.0,0.4,52,0.00,,,0.00,WUHU216HW,2013-03-30 03:41:00,
2013-03-29 23:46:00,45.7,29.1,30.15,West,270,0.2,0.4,52,0.00,,,0.00,WUHU216HW,2013-03-30 03:46:00,
2013-03-29 23:51:00,45.7,29.1,30.16,West,270,0.0,0.2,52,0.00,,,0.00,WUHU216HW,2013-03-30 03:51:00,
2013-03-29 23:56:00,45.7,29.1,30.15,North,0,0.0,0.4,52,0.00,,,0.00,WUHU216HW,2013-03-30 03:56:00,